Richmond, VA

2:05 PM EST on March 01, 2017 (GMT -0500)
Richmond International

Weather History for KRIC - January, 2015

Change the Weather History Date:

Friday, January 23, 2015

  Actual Average Record
Temperature  
Mean Temperature 38 °F 38 °F  
Max Temperature 42 °F 48 °F 76 °F (1974)
Min Temperature 33 °F 28 °F 6 °F (1936)
Degree Days  
Heating Degree Days 27 27  
Month to date heating degree days 624 621  
Since 1 July heating degree days 1940 2040  
Cooling Degree Days 0 0  
Month to date cooling degree days 0 0  
Year to date cooling degree days 0 0  
Moisture  
Dew Point 31 °F    
Average Humidity 77    
Maximum Humidity 100    
Minimum Humidity 53    
Precipitation  
Precipitation 0.47 in 0.09 in 2.51 in (1935)
Month to date precipitation 3.09 2.25  
Year to date precipitation 3.09 2.25  
Snow  
Snow 0.00 in 0.10 in 5.30 in (2016)
Month to date snowfall 0.1 2.7  
Since 1 July snowfall 0.1 5.0  
Snow Depth 0.00 in    
Sea Level Pressure  
Sea Level Pressure 30.21 in    
Wind  
Wind Speed 4 mph (East)    
Max Wind Speed 12 mph    
Max Gust Speed 15 mph    
Visibility 7 miles    
Events Rain    
T = Trace of Precipitation, MM = Missing Value Source: NWS Daily Summary

Daily Weather History Graph

Daily Weather History Graph

Search for Another Location

Airport or City:

Trip Planner

Search our weather history database for the weather conditions in past years. The results will help you decide how hot, cold, wet, or windy it might be!

Date:

Astronomy

Jan. 23, 2015 Rise Set
Actual Time 7:19 AM EST 5:23 PM EST
Civil Twilight 6:51 AM EST 5:51 PM EST
Nautical Twilight 6:19 AM EST 6:23 PM EST
Astronomical Twilight 5:48 AM EST 6:54 PM EST
Moon 9:14 AM EST (1/23) 9:24 PM EST (1/23)
Length of Visible Light 11h 00m
Length of Day
10h 03m
Waxing Crescent, 14% of the Moon is Illuminated
Jan 23
Waxing Crescent
Jan 26
First Quarter
Feb 3
Full
Feb 11
Last Quarter
Feb 18
New

Hourly Weather History & Observations

Time (EST) Temp. Windchill Dew Point Humidity Pressure Visibility Wind Dir Wind Speed Gust Speed Precip Events Conditions
12:54 AM 35.1 °F 32.2 °F 27.0 °F 72% 30.40 in 10.0 mi NNE 3.5 mph - N/A   Mostly Cloudy
1:54 AM 34.0 °F - 27.0 °F 75% 30.42 in 10.0 mi Calm Calm - N/A   Mostly Cloudy
2:54 AM 33.1 °F - 28.0 °F 82% 30.42 in 10.0 mi Calm Calm - N/A   Mostly Cloudy
3:54 AM 34.0 °F 29.8 °F 28.0 °F 79% 30.39 in 10.0 mi NNE 4.6 mph - N/A   Mostly Cloudy
4:54 AM 35.1 °F 32.2 °F 28.0 °F 76% 30.39 in 10.0 mi North 3.5 mph - N/A   Mostly Cloudy
5:54 AM 34.0 °F - 28.9 °F 82% 30.41 in 10.0 mi Calm Calm - N/A   Mostly Cloudy
6:54 AM 35.1 °F - 28.0 °F 76% 30.40 in 10.0 mi Calm Calm - N/A   Overcast
7:54 AM 35.1 °F - 30.0 °F 82% 30.37 in 10.0 mi Calm Calm - N/A   Overcast
8:54 AM 37.0 °F 34.5 °F 28.0 °F 70% 30.37 in 10.0 mi ENE 3.5 mph - N/A   Overcast
9:54 AM 39.0 °F 36.8 °F 28.0 °F 65% 30.36 in 10.0 mi ESE 3.5 mph - N/A   Overcast
10:54 AM 39.0 °F - 28.0 °F 65% 30.35 in 10.0 mi Calm Calm - N/A   Overcast
11:54 AM 41.0 °F 37.1 °F 28.0 °F 60% 30.33 in 10.0 mi South 5.8 mph - N/A   Overcast
12:54 PM 41.0 °F 37.1 °F 27.0 °F 57% 30.30 in 10.0 mi South 5.8 mph - N/A   Overcast
1:54 PM 42.1 °F - 27.0 °F 55% 30.26 in 10.0 mi Calm Calm - N/A   Overcast
2:54 PM 42.1 °F 40.2 °F 28.9 °F 60% 30.21 in 10.0 mi SE 3.5 mph - 0.00 in Rain Light Rain
3:54 PM 41.0 °F 37.1 °F 30.2 °F 65% 30.17 in 10.0 mi SSE 5.8 mph - N/A Rain Light Rain
4:54 PM 39.0 °F 36.8 °F 35.1 °F 86% 30.17 in 4.0 mi SSE 3.5 mph - 0.02 in Rain Light Rain
5:54 PM 37.9 °F 35.5 °F 37.0 °F 97% 30.16 in 3.0 mi East 3.5 mph - 0.05 in Rain Light Rain
6:54 PM 37.9 °F 33.5 °F 36.0 °F 93% 30.11 in 3.0 mi East 5.8 mph - 0.03 in Rain Light Rain
7:42 PM 37.4 °F 31.4 °F 35.6 °F 93% 30.03 in 2.5 mi NE 8.1 mph - 0.03 in Rain Light Rain
7:54 PM 37.9 °F 32.7 °F 36.0 °F 93% 30.04 in 2.5 mi ENE 6.9 mph - 0.04 in Rain Light Rain
8:04 PM 37.4 °F 30.8 °F 35.6 °F 93% 30.01 in 2.5 mi ENE 9.2 mph - 0.01 in Rain Light Rain
8:33 PM 37.4 °F 32.1 °F 35.6 °F 93% 29.99 in 2.5 mi East 6.9 mph - 0.02 in Rain Light Rain
8:54 PM 37.0 °F 31.0 °F 36.0 °F 96% 30.00 in 2.0 mi East 8.1 mph - 0.04 in Rain Light Rain
9:39 PM 35.6 °F 28.0 °F 35.6 °F 100% 29.93 in 1.8 mi ENE 10.4 mph - 0.09 in Rain Light Rain
9:54 PM 36.0 °F 29.0 °F 35.1 °F 97% 29.93 in 1.5 mi East 9.2 mph - 0.11 in Rain Light Rain
10:54 PM 36.0 °F 31.1 °F 35.1 °F 97% 29.88 in 1.5 mi ENE 5.8 mph - 0.07 in Rain Light Rain
11:54 PM 36.0 °F 31.1 °F 35.1 °F 97% 29.83 in 2.5 mi NNE 5.8 mph - 0.11 in Rain Light Rain